CAPE
1212 1204 1195 1183 1204 1176 1114 1099 1094 1022 1000 1153 1567 1787 1839 1890 1948 2020 2046 2122 2227 2264 2300 2364 2498 2652 2761 2791 2746 2686 2623 2506 2219 1934 1718 1312 816 707 759 25 0 0
1277 1234 1185 1169 1183 1182 1142 1077 1046 1008 941 927 1310 1600 1743 1792 1867 1992 2053 2115 2227 2295 2307 2370 2476 2616 2716 2760 2786 2770 2740 2660 2522 2190 1922 1325 910 954 1077 470 2 0
1385 1328 1297 1282 1222 1212 1197 1119 1069 1034 996 901 1082 1416 1650 1732 1783 1885 2033 2101 2201 2316 2348 2388 2458 2574 2682 2747 2791 2814 2834 2802 2674 2449 2077 1596 1518 1473 1385 1088 0 10
1446 1404 1393 1386 1304 1204 1211 1164 1112 1088 1066 1062 982 1293 1532 1709 1732 1780 1920 2274 2155 2270 2359 2399 2450 2541 2630 2702 2751 2784 2808 2816 2744 2576 2290 2038 2041 1926 1724 1561 580 2
1494 1487 1456 1405 1322 1178 1185 1229 1176 1112 1040 1179 1155 1246 1519 1693 1752 1744 1827 1976 2125 2218 2319 2388 2446 2508 2607 2670 2722 2755 2756 2778 2794 2748 2587 2454 2306 2142 1984 1794 1658 460
1505 1492 1446 1396 1314 1233 1132 1263 1320 1204 1109 1034 1281 1342 1536 1670 1773 1775 1808 1885 2036 2158 2246 2325 2421 2502 2584 2660 2692 2720 2761 2772 2830 2847 2796 2684 2492 2342 2212 2110 1955 1696
1480 1464 1446 1378 1325 1238 1149 1136 1316 1376 1235 1127 1169 1427 1620 1715 1773 1787 1805 1849 1960 2085 2174 2243 2341 2480 2568 2647 2688 2708 2747 2786 2824 2866 2853 2748 2588 2475 2374 2302 2212 2065
1458 1448 1426 1404 1320 1214 1166 1136 1150 1366 1468 1347 1178 1302 1614 1794 1828 1842 1813 1833 1898 2017 2124 2186 2258 2378 2516 2615 2667 2690 2731 2762 2835 2898 2852 2759 2649 2578 2520 2453 2361 2253
1418 1397 1366 1321 1241 1174 1181 1198 1193 1268 1431 1521 1470 1376 1432 1735 1886 1913 1914 1875 1860 1950 2081 2172 2229 2291 2420 2544 2612 2650 2679 2722 2764 2828 2799 2740 2684 2647 2624 2548 2471 2350
1331 1293 1260 1238 1228 1202 1211 1257 1280 1311 1468 1584 1581 1480 1430 1562 1802 1954 1994 1966 1903 1891 1993 2151 2234 2282 2354 2470 2556 2602 2638 2669 2710 2738 2770 2760 2696 2664 2641 2563 2502 2396
1304 1265 1252 1242 1249 1254 1258 1306 1356 1395 1498 1681 1731 1696 1583 1525 1678 1912 2043 2056 2002 1932 1938 2046 2182 2272 2331 2414 2500 2558 2602 2628 2653 2680 2698 2692 2689 2638 2583 2524 2463 2384
1342 1303 1276 1261 1265 1295 1308 1321 1394 1482 1576 1738 1845 1880 1828 1715 1655 1792 2008 2112 2105 2048 1987 2000 2107 2220 2312 2374 2456 2538 2596 2633 2659 2658 2647 2648 2626 2592 2521 2455 2415 2380
1376 1364 1335 1328 1333 1342 1342 1358 1388 1478 1594 1708 1880 1985 1993 1938 1875 1830 1830 2050 2170 2170 2104 2061 2098 2190 2288 2373 2430 2484 2548 2598 2628 2647 2652 2637 2620 2585 2533 2476 2434 2376
1406 1420 1414 1400 1409 1420 1426 1434 1432 1466 1551 1654 1776 1935 2047 2076 2038 1968 1940 1897 2000 2137 2220 2195 2172 2195 2257 2322 2393 2442 2502 2557 2576 2592 2614 2636 2647 2647 2638 2612 2547 2468
1382 1460 1484 1478 1473 1502 1532 1553 1570 1568 1580 1630 1705 1791 1925 2072 2126 2095 2019 1962 1910 1884 1976 2078 2134 2160 2200 2264 2325 2404 2479 2536 2578 2590 2592 2603 2632 2661 2678 2688 2665 2612
1420 1471 1545 1573 1577 1590 1596 1627 1668 1706 1711 1716 1728 1760 1801 1915 2064 2149 2158 2105 2042 1964 1890 1948 1977 1990 2030 2151 2260 2346 2447 2546 2608 2648 2672 2669 2662 2663 2689 2708 2714 2714
1536 1574 1627 1667 1693 1686 1680 1683 1722 1772 1835 1842 1838 1842 1831 1827 1886 2004 2135 2204 2199 2148 2057 1984 2084 2109 2073 2088 2212 2348 2421 2542 2626 2704 2744 2779 2768 2756 2747 2738 2755 2763
1687 1699 1723 1757 1764 1794 1798 1789 1782 1809 1865 1915 1946 1960 1952 1906 1857 1872 1952 2070 2168 2197 2160 2086 2056 2160 2278 2296 2286 2342 2443 2500 2599 2674 2740 2794 2836 2860 2850 2824 2805 2796
1802 1833 1848 1851 1865 1870 1880 1883 1892 1888 1901 1943 2003 2036 2048 2010 1961 1914 1894 1919 1993 2083 2152 2173 2131 2058 2142 2397 2504 2519 2504 2494 2530 2603 2657 2699 2772 2827 2872 2878 2867 2852
1915 1940 1967 1982 1965 1942 1951 1976 1978 1978 1966 1984 2016 2058 2090 2082 2064 2028 1964 1912 1884 1900 1960 2050 2123 2157 2141 2112 2240 2480 2602 2615 2579 2535 2556 2600 2636 2689 2746 2799 2832 2841
2036 2036 2060 2076 2128 2231 2278 2285 2224 2064 2046 2054 2057 2088 2116 2127 2120 2097 2047 1979 1910 1859 1837 1848 1913 2011 2107 2132 2127 2091 2249 2480 2565 2518 2477 2489 2531 2569 2599 2635 2683 2723
2219 2180 2188 2331 2413 2480 2509 2497 2459 2401 2290 2121 2106 2111 2109 2105 2098 2064 2056 2036 2000 1929 1850 1799 1800 1856 1941 2031 2108 2142 2117 2072 2241 2387 2400 2420 2448 2486 2519 2531 2553 2605
2460 2372 2531 2625 2690 2711 2712 2702 2719 2745 2737 2683 2488 2278 2135 2105 2064 2034 2006 1994 1982 1957 1921 1867 1803 1774 1801 1915 2038 2106 2132 2144 2126 2109 2159 2260 2346 2422 2474 2522 2563 2598
2727 2685 2770 2872 2919 2932 2926 2934 2968 3029 3072 3062 2966 2764 2567 2304 2092 2030 1976 1917 1881 1876 1880 1898 1882 1841 1815 1779 1800 2022 2124 2178 2216 2219 2228 2236 2262 2296 2354 2438 2512 2570
3050 2950 2980 3073 3109 3115 3114 3142 3174 3224 3267 3263 3231 3135 3000 2805 2549 2218 2023 1926 1866 1809 1791 1806 1829 1846 1845 1839 1808 1769 1932 2085 2180 2226 2261 2284 2303 2311 2332 2368 2443 2511
3396 3297 3207 3242 3273 3278 3295 3332 3361 3378 3414 3418 3375 3308 3214 3094 2942 2742 2462 2112 1923 1854 1803 1775 1757 1824 1842 1864 1857 1827 1808 1932 2043 2113 2178 2236 2270 2292 2320 2356 2418 2476
Wind_Speed
5 7 8 8 8 8 7 8 9 7 8 8 8 10 11 12 11 13 13 13 14 14 14 14 14 15 15 16 16 15 16 16 15 13 13 11 9 8 8 nan nan nan
6 8 10 10 10 10 9 9 8 7 8 9 10 10 11 9 10 10 10 11 11 12 11 11 12 13 13 14 14 15 15 16 17 14 15 14 12 9 9 8 nan nan
7 9 9 9 8 7 8 9 8 8 8 9 10 11 10 10 8 8 8 7 8 9 9 9 10 11 12 12 13 14 15 15 17 16 17 17 14 13 10 9 nan nan
8 8 9 10 10 9 9 10 9 8 9 10 9 9 9 9 7 6 5 5 5 6 7 8 9 10 11 12 13 13 14 15 15 15 16 16 17 16 13 11 9 nan
8 10 12 12 12 10 10 9 8 8 8 10 10 9 8 7 5 4 2 3 4 5 6 8 9 10 10 11 13 13 13 14 14 14 15 16 17 18 16 13 11 10
11 12 11 12 12 10 10 9 9 8 9 10 8 8 7 5 4 2 1 3 3 5 7 8 9 10 11 11 12 13 14 14 15 15 15 15 16 17 17 16 13 12
9 11 11 12 11 10 10 11 11 10 10 10 11 8 6 4 2 0 2 4 5 6 7 9 10 11 12 12 12 12 13 13 14 15 16 14 14 16 17 17 15 13
9 11 11 11 10 11 11 11 11 10 10 11 8 7 6 4 2 3 3 5 6 7 8 8 10 11 12 13 12 12 12 12 13 15 14 14 14 15 16 17 16 13
10 11 11 10 9 11 10 10 11 11 10 8 8 8 8 5 5 4 5 6 6 7 8 8 9 10 11 13 13 13 12 11 12 13 14 13 14 15 16 16 16 14
10 11 10 9 8 10 9 10 11 11 10 9 8 9 7 7 7 6 6 7 7 7 8 8 9 9 10 11 12 13 12 12 11 12 12 11 12 13 13 15 17 14
8 10 10 9 9 10 9 10 10 10 11 9 9 8 8 9 8 8 7 7 7 7 7 7 8 10 11 11 11 11 11 11 10 10 10 10 10 10 11 13 15 15
7 9 9 9 9 10 10 10 10 10 10 10 10 8 8 8 8 8 8 6 6 5 6 7 8 9 10 11 11 10 9 9 8 8 8 9 9 9 10 11 13 13
8 9 11 12 12 12 13 12 11 10 10 10 11 9 8 8 8 7 7 7 5 5 5 6 7 8 8 9 10 10 9 8 7 7 7 7 7 9 9 10 11 11
10 11 12 12 13 13 12 11 11 11 11 11 11 9 8 7 7 7 7 8 6 5 5 6 6 7 8 9 9 9 8 7 6 6 6 6 5 6 8 9 10 9
13 14 15 14 13 12 11 10 10 11 11 11 10 9 9 7 7 7 7 6 6 6 5 6 6 6 7 8 9 9 8 6 5 4 4 4 4 4 6 7 7 7
15 16 15 14 12 11 11 11 12 13 12 10 9 7 7 7 7 6 6 6 6 5 5 6 6 6 7 11 10 8 8 6 4 3 3 3 3 3 3 4 5 5
14 13 13 12 11 12 13 13 12 13 12 11 9 8 7 7 6 5 5 6 5 5 5 5 6 6 10 11 11 11 7 5 3 2 3 2 1 1 2 3 4 6
11 11 11 10 12 12 12 13 14 13 12 11 10 8 7 7 5 5 5 6 6 5 4 5 6 7 10 10 11 11 8 4 2 2 2 1 1 2 3 3 5 5
11 9 9 9 9 11 13 14 13 11 10 10 8 8 9 6 5 5 5 6 5 5 4 5 5 7 9 9 9 10 10 6 1 0 0 2 3 4 5 5 5 6
9 8 8 8 9 11 12 11 10 8 9 10 10 10 7 5 6 5 6 7 6 6 5 4 4 4 8 8 8 9 9 7 3 3 3 4 5 5 5 7 8 8
5 6 6 7 8 9 9 7 7 8 9 10 9 8 7 7 7 7 7 8 7 7 6 4 3 3 5 6 6 7 7 6 2 4 5 6 6 5 6 8 8 8
1 2 3 4 5 5 5 4 5 7 9 11 10 10 9 10 10 9 8 7 7 7 7 4 3 3 5 4 5 5 7 4 0 3 4 6 6 5 6 6 6 7
1 2 2 3 3 3 3 3 5 7 9 12 11 10 11 10 10 11 10 10 10 9 7 6 6 6 6 5 5 8 9 4 3 1 2 4 5 4 4 5 5 7
4 4 3 4 4 4 3 4 5 8 9 12 10 11 11 11 13 14 14 13 12 9 8 8 8 10 9 7 7 10 9 6 5 3 1 1 2 2 2 3 5 9
7 6 5 5 5 5 5 6 7 8 10 12 11 11 12 14 16 16 15 15 13 11 9 8 9 9 8 8 9 11 9 8 7 5 3 2 2 1 3 5 7 9
11 9 8 8 7 7 7 7 9 10 12 12 12 13 14 17 17 17 15 15 15 14 14 11 9 10 10 9 12 11 10 8 8 5 3 2 4 5 6 9 11 13
Wind_Direction
175 166 175 186 185 179 165 156 159 155 141 139 126 107 93 91 89 79 74 70 66 61 57 50 45 42 41 39 37 33 30 29 25 17 16 15 28 26 34 nan nan nan
165 167 179 184 187 183 172 170 166 157 146 136 126 118 111 107 89 77 68 61 55 51 44 38 33 29 26 25 25 24 26 25 26 19 13 10 12 10 23 24 nan nan
176 174 178 182 184 177 171 177 173 164 157 137 137 131 119 112 95 84 69 53 43 38 30 24 18 13 10 9 6 8 10 14 20 18 16 16 6 3 10 4 nan nan
175 175 176 177 183 179 178 181 176 171 162 158 134 127 122 116 104 82 71 45 29 21 13 4 6 359 355 353 349 354 356 359 4 4 12 15 11 6 4 355 0 nan
183 182 181 182 183 182 182 175 171 170 153 142 159 154 132 126 117 100 67 36 9 2 348 352 349 348 342 340 338 342 343 345 344 349 358 9 11 7 7 356 357 9
190 189 189 188 187 183 175 171 170 169 161 165 151 154 142 140 140 115 43 3 347 343 340 336 336 338 333 333 331 334 333 335 335 336 346 358 4 5 5 2 2 8
205 200 195 194 187 177 172 174 178 174 171 162 178 163 169 169 172 330 337 338 332 329 333 329 329 330 326 324 327 330 327 330 325 329 340 349 351 2 4 5 8 11
213 208 206 202 187 177 174 177 179 178 173 179 167 171 197 199 232 259 283 309 315 323 325 326 324 325 323 319 326 330 331 322 324 329 337 344 343 357 1 5 6 11
214 211 210 203 186 179 173 175 178 181 185 175 173 191 206 219 238 257 275 290 300 309 315 317 320 321 318 319 326 335 339 334 331 331 337 342 346 356 357 355 2 9
209 207 208 200 184 177 172 173 180 185 188 187 196 204 214 223 236 253 266 280 293 298 303 308 314 318 319 322 332 336 339 344 340 336 339 344 348 352 348 346 358 4
203 205 202 193 182 182 174 180 183 188 194 200 210 212 222 235 242 253 264 273 284 295 305 313 322 325 324 325 328 331 337 341 341 339 341 345 348 347 340 343 349 357
191 196 196 192 187 185 182 186 188 192 202 209 220 226 233 243 254 256 262 271 279 296 308 319 319 319 322 324 328 328 328 331 334 335 342 344 342 340 340 338 342 352
180 187 195 196 195 193 194 194 192 197 207 216 228 235 244 246 251 257 254 260 270 281 299 311 314 311 311 313 314 316 321 324 329 327 331 334 336 338 337 335 340 352
178 190 198 202 203 203 202 200 202 206 213 222 232 240 244 249 252 256 257 259 268 277 288 286 293 296 300 304 306 311 312 319 322 318 322 326 328 325 326 333 345 2
186 194 201 206 208 210 209 209 214 217 223 231 234 234 236 245 251 257 262 266 268 277 284 286 293 301 298 307 311 314 312 320 320 310 309 311 316 323 320 333 347 9
195 199 203 206 208 210 211 214 218 222 226 231 231 232 235 243 251 259 263 272 276 283 287 293 303 298 329 352 338 318 312 306 286 274 280 294 309 317 325 343 17 23
202 201 204 204 202 206 212 216 219 221 222 222 223 227 235 242 253 266 269 268 280 286 299 303 304 311 358 347 354 360 330 305 303 267 251 248 257 347 17 28 35 36
206 208 206 203 208 208 213 216 217 217 216 217 220 225 229 237 250 267 267 265 263 278 297 304 306 343 357 353 355 1 355 345 299 254 235 195 124 88 82 59 51 41
212 211 207 208 209 212 215 218 220 217 216 220 223 228 230 239 252 263 273 273 270 275 281 294 302 344 354 356 356 1 10 20 81 292 76 88 81 84 89 78 69 57
219 214 214 210 213 217 218 221 223 222 228 230 230 237 244 247 256 269 267 268 269 267 265 275 302 337 345 355 359 6 13 7 64 66 80 83 75 75 81 75 61 48
225 223 223 223 227 231 232 234 240 238 248 250 251 258 260 260 261 261 259 261 263 265 263 270 263 343 326 349 2 3 4 347 61 83 95 91 81 71 65 60 48 31
250 247 249 245 251 255 260 265 263 266 267 263 259 256 253 251 251 254 260 260 257 256 258 255 239 306 306 324 338 338 321 286 44 90 86 89 86 73 59 50 29 8
292 308 303 304 301 305 314 297 279 271 263 259 262 261 259 260 258 256 249 246 243 244 248 238 220 254 282 291 293 295 278 244 243 201 120 93 88 72 51 32 1 339
268 283 298 312 312 329 327 300 281 265 266 264 267 265 260 258 252 245 242 241 244 245 248 235 223 245 278 283 292 293 290 256 243 243 156 122 96 68 21 351 341 351
256 264 273 286 299 309 304 303 290 279 269 263 263 261 256 249 247 243 239 237 239 241 247 245 226 239 278 286 288 289 280 240 243 234 216 214 259 296 295 295 295 300
246 256 262 264 273 280 281 288 280 272 269 266 259 256 251 248 246 242 239 234 234 238 241 242 235 231 248 279 280 285 304 265 246 244 241 256 268 279 282 287 290 289